[[{"header":{"parameterUnit":"m.s-1","parameterCategory":1,"la1":30.2991,"la2":30.254,"lo1":-89.0895,"lo2":-89.0444,"dx":0.0017,"dy":0.0017,"nx":28,"ny":28,"refTime":"2022-12-09T15:00:00:Z","depth":0,"parameterNumber":2,"parameterNumberName":"U-component_of_WINDS"},"data":[0,0,0,0,0,0,0,0,0,0,0,0,0,0,0,0,0,0,0,0,0,0,0,0,0,0,0,0,0,0,0,0,0,0,0,0,0,0,0,0,0,0,0,0,0,0,0,0,0,0,0,0,0,0,0,0,0,0,-2.067,-2.067,0,-2.0665,-2.0665,-2.0665,-2.0622,-2.0621,-2.062,-2.0619,-2.0614,-2.0615,-2.0615,0,0,0,0,0,0,0,0,0,0,0,0,0,-2.0643,-2.0644,-2.067,-2.067,-2.067,-2.0665,-2.0665,-2.0665,-2.0622,-2.0621,-2.062,-2.0619,-2.0614,-2.0615,-2.0616,0,0,0,0,0,0,0,0,0,0,0,0,0,-2.0649,-2.0644,-2.067,-2.0648,-2.0646,-2.0665,-2.0665,-2.0665,-2.0623,-2.0621,-2.0619,-2.0618,-2.0613,-2.0614,-2.0616,-2.0656,0,0,-2.062,-2.062,0,0,0,0,0,0,0,0,-2.0648,-2.065,-2.0652,-2.065,-2.0648,-2.0643,-2.0654,-2.0662,-2.0623,-2.0632,-2.0619,-2.0617,-2.0625,-2.0625,-2.0628,-2.0655,-2.0655,-2.062,-2.0621,-2.0621,-2.0621,0,0,0,0,0,0,0,-2.0648,-2.065,-2.0668,-2.0652,-2.0649,-2.0639,-2.0638,-2.0655,-2.0637,-2.0631,-2.0628,-2.0628,-2.0623,-2.0626,-2.0627,-2.0655,-2.062,-2.0621,-2.0622,-2.0622,-2.0715,-2.0717,0,0,0,0,0,0,-2.0651,-2.065,-2.0669,-2.0668,-2.0644,-2.0641,-2.0639,-2.0646,-2.0637,-2.0634,-2.0629,-2.0626,-2.0625,-2.0626,-2.0627,-2.0672,-2.0621,-2.0622,-2.0623,-2.0714,-2.0716,-2.0718,0,0,0,0,0,0,-2.065,-2.0653,-2.0669,-2.0658,-2.0659,-2.0643,-2.065,-2.0647,-2.065,-2.0636,-2.0632,-2.0635,-2.0624,-2.0625,-2.0649,-2.0672,-2.0623,-2.0624,-2.0712,-2.0714,-2.0717,-2.0764,0,0,0,0,0,0,-2.065,-2.0653,-2.0668,-2.0659,-2.066,-2.0691,-2.0652,-2.0648,-2.0652,-2.0648,-2.0641,-2.0638,-2.0623,-2.0647,-2.065,-2.0672,-2.0625,-2.071,-2.0713,-2.0716,-2.0761,-2.0768,-2.0775,0,0,0,0,0,-2.0649,-2.0681,-2.0669,-2.0671,-2.0678,-2.0692,-2.0693,-2.0675,-2.0654,-2.0669,-2.066,-2.0638,-2.0669,-2.065,-2.0653,-2.0676,-2.0708,-2.0712,-2.0716,-2.0757,-2.0767,-2.0775,0,0,0,0,0,0,-2.0693,-2.068,-2.0665,-2.0696,-2.0696,-2.0685,-2.0703,-2.0685,-2.069,-2.0686,-2.0663,-2.0662,-2.0689,-2.0685,-2.0664,-2.0714,-2.0685,-2.0689,-2.0716,-2.0724,-2.0731,-2.0731,-2.0626,0,0,0,0,0,-2.0707,-2.0719,-2.0707,-2.0735,-2.0735,-2.0719,-2.0725,-2.0711,-2.0709,-2.0709,-2.0702,-2.0701,-2.0711,-2.0718,-2.0726,-2.0761,-2.0758,-2.0778,-2.0785,-2.0791,-2.0795,-2.0813,-2.0821,-2.073,-2.073,-2.073,0,0,-2.0734,-2.0728,-2.0737,-2.0744,-2.0742,-2.0755,-2.0719,-2.0735,-2.0745,-2.0711,-2.0733,-2.0728,-2.0726,-2.0756,-2.0768,-2.0753,-2.082,-2.0796,-2.0801,-2.0801,-2.0817,-2.0826,-2.0834,-2.0733,-2.0732,-2.0732,0,0,-2.0791,-2.0788,-2.0811,-2.081,-2.0808,-2.0797,-2.0803,-2.0795,-2.079,-2.0812,-2.0787,-2.0799,-2.0816,-2.0815,-2.0817,-2.0875,-2.0855,-2.0879,-2.0915,-2.0933,-2.094,-2.0946,-2.0966,-2.0973,-2.0883,-2.0883,-2.0883,0,-2.0825,-2.0844,-2.0825,-2.0842,-2.0846,-2.0817,-2.084,-2.084,-2.084,-2.0843,-2.0827,-2.0847,-2.0844,-2.0873,-2.0887,-2.089,-2.0896,-2.0879,-2.094,-2.0946,-2.0952,-2.0971,-2.0978,-2.0886,-2.0886,-2.0885,-2.0885,0,-2.0886,-2.09,-2.0919,-2.092,-2.0926,-2.0946,-2.093,-2.0938,-2.0924,-2.0916,-2.0938,-2.0934,-2.094,-2.0946,-2.0933,-2.0973,-2.0964,-2.0944,-2.0914,-2.0964,-2.0981,-2.0988,-2.089,-2.0889,-2.0888,-2.0887,0,0,-2.0969,-2.096,-2.0967,-2.0968,-2.0964,-2.0974,-2.0993,-2.1,-2.1007,-2.1009,-2.1024,-2.104,-2.1022,-2.1024,-2.101,-2.1026,-2.1072,-2.1004,-2.1004,-2.1016,-2.1116,-2.113,-2.1138,-2.1059,-2.1061,-2.1062,-2.1115,0,-2.1023,-2.1055,-2.1038,-2.1072,-2.1085,-2.1058,-2.1075,-2.1074,-2.1067,-2.1077,-2.1069,-2.108,-2.1056,-2.1057,-2.1071,-2.1063,-2.1091,-2.1059,-2.1073,-2.1073,-2.1073,-2.1147,-2.1162,-2.1213,-2.1122,-2.1123,-2.1124,0,-2.1089,-2.1094,-2.1129,-2.1123,-2.1128,-2.1143,-2.1148,-2.1158,-2.1157,-2.115,-2.1154,-2.1137,-2.1155,-2.1126,-2.1152,-2.113,-2.1135,-2.1132,-2.1134,-2.1133,-2.1101,-2.1148,-2.1229,-2.1236,-2.1135,-2.1134,-2.1133,0,-2.1145,-2.116,-2.1183,-2.1185,-2.1178,-2.119,-2.1188,-2.1185,-2.119,-2.1195,-2.1198,-2.1205,-2.1208,-2.1214,-2.1199,-2.118,-2.1226,-2.1196,-2.1221,-2.1221,-2.1231,-2.123,-2.1312,-2.1236,-2.1236,-2.1236,-2.1236,0,-2.1206,-2.1228,-2.1208,-2.1222,-2.1247,-2.1228,-2.1253,-2.1248,-2.1246,-2.1259,-2.1237,-2.1249,-2.123,-2.1241,-2.1229,-2.1252,-2.1254,-2.1249,-2.1245,-2.125,-2.125,-2.1252,-2.1247,-2.1238,-2.1237,-2.1237,-2.1237,0,-2.1271,-2.1259,-2.1282,-2.1275,-2.1273,-2.1292,-2.1285,-2.1298,-2.129,-2.1306,-2.1309,-2.1296,-2.1307,-2.1294,-2.1304,-2.1296,-2.1326,-2.1318,-2.1327,-2.1324,-2.1349,-2.1346,-2.1434,-2.1444,-2.1363,-2.1363,-2.1364,0,-2.131,-2.1327,-2.1322,-2.1328,-2.1328,-2.1339,-2.1345,-2.1328,-2.1334,-2.1335,-2.1347,-2.1357,-2.1363,-2.1383,-2.1374,-2.1382,-2.1373,-2.1404,-2.1374,-2.1379,-2.1373,-2.1371,-2.1373,-2.1409,-2.141,-2.1411,-2.1412,0,-2.1381,-2.1374,-2.1382,-2.1389,-2.1396,-2.14,-2.1403,-2.141,-2.1392,-2.1401,-2.1412,-2.1417,-2.1428,-2.1438,-2.1443,-2.1441,-2.1423,-2.1421,-2.1427,-2.1431,-2.1435,-2.1432,-2.1342,-2.1419,-2.1418,-2.1418,-2.1417,-2.1417,-2.1433,-2.1447,-2.1445,-2.1455,-2.1456,-2.1459,-2.147,-2.1464,-2.1473,-2.148,-2.147,-2.1484,-2.1484,-2.1489,-2.1489,-2.15,-2.1487,-2.1496,-2.1498,-2.15,-2.1504,-2.1435,-2.1501,-2.1501,-2.1501,-2.1501,-2.1501,0,-2.1501,-2.1499,-2.1509,-2.1514,-2.1522,-2.1505,-2.1508,-2.1515,-2.1528,-2.1529,-2.1536,-2.1549,-2.1559,-2.1552,-2.156,-2.157,-2.1562,-2.1572,-2.1571,-2.1571,-2.1515,-2.1509,-2.1579,-2.1579,-2.1579,-2.1579,-2.1579,-2.1579,-2.1538,-2.1559,-2.1553,-2.1575,-2.1573,-2.1586,-2.1589,-2.1592,-2.1592,-2.1608,-2.1616,-2.1612,-2.1609,-2.1617,-2.1625,-2.1623,-2.1626,-2.1639,-2.1634,-2.1582,-2.1574,-2.1567,-2.1561,-2.1641,-2.1641,-2.1688,-2.1689,-2.1689]},{"header":{"parameterUnit":"m.s-1","parameterCategory":1,"la1":30.2991,"la2":30.254,"lo1":-89.0895,"lo2":-89.0444,"dx":0.0017,"dy":0.0017,"nx":28,"ny":28,"refTime":"2022-12-09T15:00:00:Z","depth":0,"parameterNumber":3,"parameterNumberName":"V-component_of_WINDS"},"data":[0,0,0,0,0,0,0,0,0,0,0,0,0,0,0,0,0,0,0,0,0,0,0,0,0,0,0,0,0,0,0,0,0,0,0,0,0,0,0,0,0,0,0,0,0,0,0,0,0,0,0,0,0,0,0,0,0,0,2.5793,2.5793,0,2.5807,2.5807,2.5807,2.5809,2.5809,2.5809,2.5809,2.5822,2.5822,2.5823,0,0,0,0,0,0,0,0,0,0,0,0,0,2.5765,2.5766,2.5793,2.5793,2.5793,2.5807,2.5807,2.5807,2.5809,2.5809,2.5809,2.5809,2.5821,2.5822,2.5823,0,0,0,0,0,0,0,0,0,0,0,0,0,2.5778,2.5766,2.5793,2.5796,2.5796,2.5807,2.5807,2.5807,2.5809,2.5809,2.5809,2.5809,2.5821,2.5822,2.5823,2.5831,0,0,2.5825,2.5825,0,0,0,0,0,0,0,0,2.5777,2.5779,2.5795,2.5795,2.5796,2.5806,2.5802,2.5815,2.5809,2.5804,2.5809,2.5808,2.5817,2.5818,2.5821,2.5832,2.5832,2.5825,2.5825,2.5826,2.5826,0,0,0,0,0,0,0,2.5776,2.5778,2.5798,2.5795,2.5796,2.5796,2.5797,2.5805,2.5811,2.5805,2.5805,2.5807,2.5817,2.582,2.5821,2.5832,2.5825,2.5825,2.5826,2.5826,2.5851,2.5851,0,0,0,0,0,0,2.5775,2.5778,2.5798,2.5799,2.5786,2.5796,2.5798,2.5803,2.5811,2.5812,2.5807,2.5807,2.5819,2.582,2.5821,2.5832,2.5826,2.5826,2.5827,2.585,2.5851,2.5851,0,0,0,0,0,0,2.5775,2.5777,2.5797,2.5788,2.5791,2.5797,2.5803,2.5803,2.5807,2.5813,2.5814,2.5809,2.5819,2.582,2.5829,2.5832,2.5827,2.5827,2.585,2.585,2.5851,2.5852,0,0,0,0,0,0,2.5774,2.5777,2.578,2.5788,2.5791,2.5805,2.5803,2.5804,2.5808,2.5808,2.5815,2.5816,2.5819,2.5828,2.5829,2.5833,2.5828,2.585,2.585,2.5851,2.5852,2.5852,2.5853,0,0,0,0,0,2.5773,2.578,2.5781,2.5783,2.5796,2.5805,2.5807,2.581,2.5808,2.5812,2.5816,2.5816,2.5831,2.5828,2.583,2.5834,2.585,2.585,2.5851,2.5851,2.5852,2.5853,0,0,0,0,0,0,2.5771,2.5781,2.5782,2.5792,2.5798,2.5805,2.581,2.5811,2.5817,2.5816,2.582,2.5821,2.5829,2.5833,2.5829,2.5843,2.584,2.5841,2.584,2.5841,2.5842,2.584,2.5828,0,0,0,0,0,2.5772,2.5779,2.5787,2.5795,2.5798,2.5803,2.5807,2.581,2.5816,2.5818,2.5822,2.5828,2.5834,2.5838,2.5843,2.5852,2.5853,2.5856,2.5856,2.5857,2.5857,2.5862,2.5863,2.5853,2.5853,2.5853,0,0,2.5774,2.578,2.5784,2.5795,2.58,2.5806,2.5805,2.5812,2.5817,2.5819,2.5827,2.583,2.5836,2.5845,2.5849,2.5848,2.5861,2.5857,2.5858,2.5858,2.5863,2.5864,2.5864,2.5853,2.5853,2.5853,0,0,2.5781,2.5786,2.5793,2.5798,2.5806,2.581,2.5811,2.5819,2.5821,2.583,2.5831,2.5836,2.5847,2.5851,2.5855,2.5863,2.5863,2.5865,2.5868,2.5872,2.5873,2.5874,2.5877,2.5877,2.5866,2.5866,2.5866,0,2.5782,2.5792,2.5797,2.5804,2.5808,2.5811,2.5818,2.5822,2.5831,2.5834,2.5833,2.5846,2.585,2.5859,2.5862,2.5864,2.5866,2.5864,2.5873,2.5874,2.5874,2.5877,2.5878,2.5866,2.5866,2.5866,2.5866,0,2.5793,2.5801,2.5805,2.5815,2.582,2.5826,2.5831,2.5836,2.5838,2.5841,2.5849,2.5855,2.5862,2.5864,2.5866,2.5874,2.5873,2.5872,2.587,2.5875,2.5878,2.5879,2.5866,2.5866,2.5866,2.5866,0,0,2.5799,2.5811,2.5812,2.5817,2.5825,2.5831,2.5837,2.5845,2.5848,2.5854,2.586,2.5869,2.5869,2.5873,2.5875,2.5879,2.5884,2.5877,2.5878,2.5878,2.5893,2.5893,2.5894,2.5885,2.5885,2.5885,2.5892,0,2.5806,2.5819,2.5824,2.5834,2.5841,2.5843,2.5849,2.5855,2.5858,2.5864,2.5867,2.5874,2.5873,2.5875,2.5879,2.5883,2.5887,2.5882,2.5889,2.589,2.5887,2.5896,2.5896,2.5902,2.5893,2.5894,2.5894,0,2.5817,2.5823,2.5835,2.5843,2.5846,2.5851,2.5858,2.5864,2.587,2.5872,2.5877,2.5878,2.5885,2.5883,2.5892,2.5888,2.5892,2.5894,2.5894,2.5895,2.5892,2.5896,2.5905,2.5905,2.5895,2.5895,2.5895,0,2.5819,2.5831,2.584,2.5843,2.5853,2.5856,2.586,2.5866,2.587,2.5876,2.5879,2.5886,2.5889,2.5894,2.5897,2.5895,2.5906,2.5904,2.5907,2.5907,2.5909,2.5909,2.5918,2.5912,2.5912,2.5912,2.5912,0,2.5827,2.5833,2.5841,2.5846,2.5854,2.5858,2.5865,2.5869,2.5875,2.588,2.5883,2.5887,2.5892,2.5897,2.59,2.5907,2.5908,2.591,2.591,2.5909,2.5909,2.5911,2.5911,2.5912,2.5912,2.5912,2.5912,0,2.5831,2.5836,2.5845,2.5854,2.5856,2.5861,2.5868,2.5873,2.5876,2.5883,2.5885,2.5891,2.5897,2.5901,2.5909,2.5911,2.5918,2.5919,2.5916,2.5917,2.592,2.5919,2.593,2.5932,2.5925,2.5925,2.5925,0,2.5835,2.584,2.5849,2.5854,2.5858,2.5864,2.5869,2.5874,2.5878,2.5886,2.5889,2.5896,2.5902,2.5912,2.5916,2.5922,2.5923,2.5926,2.5923,2.5922,2.5922,2.5922,2.5922,2.5926,2.5926,2.5926,2.5926,0,2.5842,2.5844,2.5851,2.5859,2.5864,2.587,2.5876,2.5879,2.5885,2.5889,2.5897,2.5901,2.5909,2.5916,2.5922,2.5926,2.5927,2.5927,2.5928,2.5927,2.5926,2.5926,2.5917,2.5927,2.5927,2.5927,2.5927,2.5927,2.5846,2.5851,2.5858,2.5865,2.5871,2.5876,2.5881,2.5886,2.5892,2.5899,2.5902,2.5909,2.5915,2.5924,2.5927,2.5932,2.5932,2.5933,2.5934,2.5934,2.5934,2.5925,2.5934,2.5934,2.5934,2.5934,2.5934,0,2.5853,2.5858,2.5864,2.5873,2.5879,2.588,2.5887,2.5891,2.5898,2.5903,2.5909,2.5917,2.5923,2.5928,2.5935,2.5938,2.5938,2.5939,2.5939,2.594,2.5934,2.5933,2.5939,2.5939,2.5939,2.5939,2.5939,2.5939,2.5857,2.5865,2.5868,2.5879,2.5884,2.5891,2.5895,2.59,2.5905,2.5914,2.5919,2.5923,2.5928,2.5935,2.594,2.5942,2.5944,2.5944,2.5946,2.594,2.594,2.5939,2.5938,2.5945,2.5945,2.595,2.5951,2.5951]}]]